Wind_Speed
22 21 21 20 19 19 18 17 16 15 14 12 12 11 10 10 9 9 9 9 9 9 9 9 9 10 10 11 11 11 12 13 14 14 15 16 17 17 18 18 19 19 20
23 22 22 21 20 19 19 18 16 15 14 13 12 12 11 11 10 10 10 10 10 10 9 10 10 11 11 12 12 12 13 14 15 16 17 17 18 18 18 19 20 20 21
24 23 22 21 20 20 19 18 17 16 15 14 13 12 12 12 11 11 10 10 11 10 11 11 11 12 12 12 13 13 14 15 16 17 17 18 18 19 20 20 21 21 22
25 24 23 22 21 20 19 18 18 17 16 15 14 14 13 12 12 11 11 11 11 11 11 12 12 13 13 13 14 15 16 17 17 18 18 19 20 21 21 21 22 23 23
25 25 24 23 22 21 20 19 18 17 16 16 15 14 14 13 12 12 11 11 12 12 12 13 13 13 13 14 15 16 17 18 18 19 20 21 22 22 23 23 24 24 25
25 25 24 24 23 22 21 20 19 18 17 16 15 14 14 13 13 12 12 12 13 13 13 13 13 14 14 15 17 17 18 19 19 20 21 22 23 24 24 25 26 26 27
26 26 25 24 23 23 22 21 20 18 18 17 16 15 14 14 13 13 13 13 13 13 13 13 14 15 16 17 18 18 19 20 21 22 23 24 24 25 26 26 27 28 29
26 26 26 25 24 24 23 22 20 19 18 17 17 16 15 15 14 14 14 13 13 14 14 15 16 16 17 18 19 20 21 22 23 23 24 25 25 26 27 28 29 29 30
26 27 27 26 25 25 23 22 21 20 19 18 17 17 16 16 15 15 14 14 14 15 15 16 17 18 19 19 20 21 22 23 24 25 25 26 27 28 29 30 30 31 31
26 26 26 26 26 25 24 23 22 21 20 19 18 17 17 16 16 16 15 15 16 16 17 17 18 19 20 21 22 23 24 25 25 26 27 28 29 29 30 31 32 32 33
26 26 26 26 26 25 24 23 22 22 21 20 19 19 18 17 17 17 17 17 17 18 18 19 19 20 21 23 24 25 26 26 27 28 29 30 30 31 32 32 33 33 34
26 26 26 27 27 26 25 24 23 22 22 20 20 19 19 19 18 18 19 19 19 19 19 20 21 22 23 24 25 26 27 28 29 30 31 31 32 32 33 33 34 35 35
27 27 27 27 27 26 25 24 23 23 22 21 21 20 20 20 20 20 20 19 20 20 21 22 23 24 25 26 27 28 29 30 31 31 32 33 33 33 34 35 36 36 37
28 28 28 27 27 26 25 24 24 23 23 23 22 21 21 21 21 21 20 20 21 22 22 24 25 26 27 28 29 30 31 31 32 33 34 34 35 35 35 36 37 37 38
30 29 29 29 28 27 26 25 25 24 24 23 23 23 22 22 22 21 21 22 23 23 25 26 27 28 29 30 31 31 32 33 34 35 36 36 36 36 37 38 38 39 39
31 30 30 30 29 28 27 27 26 25 25 25 25 24 23 23 23 23 24 24 25 25 27 28 29 30 31 32 33 33 34 35 36 36 37 37 37 38 39 39 39 39 39
33 32 31 31 30 30 29 28 28 27 27 26 26 25 24 24 25 25 25 26 27 28 29 30 31 32 33 33 34 35 36 36 37 37 37 38 38 39 39 39 39 39 39
35 34 33 33 32 31 31 30 29 29 28 28 27 27 26 27 27 27 27 28 29 30 31 32 33 33 34 35 36 36 37 37 38 38 38 38 39 39 39 39 40 40 39
36 36 35 34 34 33 32 32 31 30 29 29 29 29 29 29 29 29 29 30 31 32 33 34 34 35 35 36 37 37 37 37 37 38 38 39 39 39 39 40 40 39 40
39 37 36 36 35 35 34 33 32 31 31 31 31 31 31 30 30 30 31 32 33 34 34 35 35 36 36 37 37 37 37 37 38 38 38 39 39 39 39 40 40 39 40
41 39 38 37 37 36 35 34 33 33 33 33 33 32 32 32 32 33 34 34 35 35 35 36 36 36 37 37 37 37 37 38 38 38 38 39 39 39 40 40 39 39 39
42 41 39 38 38 37 36 35 35 35 35 34 34 34 34 34 35 35 36 36 36 36 36 37 37 37 38 37 37 37 37 38 38 38 38 38 38 39 39 39 39 39 39
44 42 41 40 39 38 37 37 37 36 35 35 35 36 36 37 37 37 37 37 37 37 37 37 37 38 37 37 37 37 37 38 38 38 38 39 39 39 39 39 39 39 40
46 45 43 41 40 39 39 38 38 37 36 36 37 38 38 38 38 38 38 38 37 37 37 37 37 37 37 37 37 37 38 38 38 38 39 39 39 39 39 39 39 40 41
48 47 45 43 42 41 41 40 39 38 38 38 38 39 39 39 39 38 38 38 37 37 38 37 37 37 37 37 37 37 37 37 37 38 38 39 39 39 39 39 40 41 41
50 48 47 45 44 43 42 41 40 39 39 39 39 39 39 39 39 38 38 38 38 37 37 37 37 37 37 37 37 37 37 37 37 38 38 38 39 39 40 41 41 42 42
Wind_Direction
227 226 226 226 226 225 224 224 225 226 228 230 233 238 243 248 253 259 269 275 277 280 283 287 292 297 300 303 303 303 303 303 304 304 303 302 301 300 298 296 295 294 293
227 226 226 225 225 224 224 224 225 226 228 231 235 240 244 250 256 263 268 272 276 280 284 288 294 298 300 302 303 303 303 303 303 303 302 301 301 300 299 297 295 294 293
226 225 225 224 224 224 224 225 226 228 230 233 237 241 247 253 258 263 267 272 276 280 283 287 292 295 298 300 301 302 303 304 303 302 302 301 301 301 300 298 296 294 293
226 226 224 224 223 223 224 226 228 229 232 235 239 244 249 253 258 262 267 271 276 280 284 288 291 294 296 298 301 302 303 304 303 302 301 301 301 300 299 297 296 294 293
226 226 225 224 224 224 224 226 228 230 233 236 241 245 248 252 257 262 266 271 277 282 286 290 292 294 297 300 302 303 303 302 302 302 301 300 300 299 298 297 296 295 294
225 224 224 225 225 225 226 227 228 231 234 237 240 243 246 251 256 260 266 272 279 283 286 288 291 293 296 299 301 303 303 302 302 302 302 300 300 298 297 297 296 295 294
223 223 223 224 224 225 227 228 230 231 233 236 239 243 246 251 255 261 267 272 278 281 283 286 290 292 296 298 300 301 302 303 303 302 302 301 299 298 296 296 295 295 294
222 222 222 223 223 225 226 228 229 230 232 236 240 243 247 252 256 261 267 272 276 278 282 286 289 292 295 297 299 300 301 301 302 301 301 301 300 298 297 296 295 295 294
222 222 222 222 223 224 226 227 229 231 234 237 241 244 248 252 256 261 267 273 275 278 283 286 289 292 294 295 297 299 300 300 301 300 301 301 300 298 297 296 296 295 294
221 220 220 221 222 223 225 227 229 232 235 238 241 244 248 252 256 262 268 272 275 279 283 286 288 291 293 295 297 298 299 300 300 300 300 301 300 299 298 297 297 296 295
219 219 220 221 222 223 224 227 230 234 236 238 241 245 248 253 257 264 269 272 276 279 282 285 289 291 293 295 296 298 299 299 299 299 299 300 300 299 299 298 297 297 296
218 218 219 219 221 223 226 229 232 234 236 239 243 245 249 253 258 265 268 272 275 278 282 285 289 291 293 295 296 298 299 299 300 300 300 300 300 300 299 298 297 297 297
218 218 218 219 221 224 226 229 232 234 236 240 244 246 250 254 261 265 268 271 275 279 283 286 289 292 294 295 296 298 298 299 299 300 300 300 300 300 300 299 298 298 297
219 219 218 219 221 224 226 229 231 233 237 240 243 248 252 257 262 264 267 271 276 279 283 287 290 293 294 295 296 297 298 299 299 300 300 300 300 300 300 300 299 299 298
219 219 219 220 222 224 227 229 232 235 238 241 245 250 255 259 262 264 267 272 276 280 283 287 290 293 295 296 296 297 297 298 299 300 301 300 300 300 301 301 300 299 299
220 221 221 222 224 226 228 231 233 236 239 242 247 251 256 259 262 264 268 273 276 280 284 288 290 293 294 296 296 297 297 298 299 300 300 301 301 301 302 301 301 300 300
222 222 223 224 225 228 230 232 235 237 240 244 248 253 257 260 262 266 270 274 278 281 285 288 291 293 294 296 297 297 298 298 299 300 301 301 301 301 302 302 301 301 300
223 224 224 225 227 229 232 234 236 238 242 246 250 254 258 261 264 268 272 275 278 281 285 288 291 293 294 296 297 297 297 298 300 300 301 300 301 301 301 301 301 301 300
225 226 227 228 229 231 233 235 237 240 244 248 252 255 258 262 266 269 273 276 279 282 285 288 290 292 294 295 297 297 297 298 300 300 301 301 301 301 302 302 302 301 301
226 227 229 230 231 233 235 237 239 242 245 249 253 256 260 264 268 271 273 277 279 282 286 288 290 292 293 295 297 298 298 299 299 300 300 301 301 301 302 303 302 301 301
227 228 230 231 233 235 237 239 241 244 247 250 254 258 261 265 268 271 274 277 280 283 286 288 290 291 293 295 296 297 298 298 299 300 301 301 301 302 302 303 302 302 302
228 229 231 233 235 237 239 241 243 245 249 252 255 259 262 264 268 271 275 278 281 283 285 288 290 292 293 295 296 296 297 298 299 299 300 301 301 301 302 303 303 303 302
229 230 232 234 236 238 240 242 244 247 250 253 257 259 262 265 268 272 275 279 281 283 285 288 290 292 293 294 295 296 297 298 298 299 300 300 301 302 303 303 303 303 303
229 231 233 234 236 238 241 243 245 248 251 254 257 260 263 266 269 273 275 278 281 283 285 287 289 291 292 293 294 296 296 297 298 299 300 300 301 302 303 303 303 304 304
229 231 233 234 236 238 241 244 247 249 251 254 258 261 264 267 270 272 275 278 280 282 285 287 288 290 291 292 294 295 296 297 298 299 300 301 301 302 303 303 304 304 304
229 231 233 235 237 239 242 245 247 250 252 255 258 261 264 267 269 272 275 278 280 282 284 286 287 289 290 291 293 294 295 297 298 299 300 301 302 302 303 303 304 304 304
Height
5867 5868 5870 5872 5873 5874 5875 5877 5878 5879 5880 5881 5881 5882 5883 5883 5883 5883 5883 5882 5882 5881 5880 5879 5879 5878 5877 5876 5875 5874 5873 5872 5871 5870 5868 5867 5866 5864 5863 5861 5860 5858 5857
5864 5865 5867 5869 5870 5872 5873 5875 5876 5877 5878 5879 5880 5880 5881 5881 5881 5881 5881 5880 5880 5879 5879 5878 5877 5876 5875 5874 5873 5872 5871 5870 5869 5867 5866 5865 5863 5861 5860 5858 5857 5855 5854
5860 5862 5864 5866 5868 5869 5871 5872 5874 5875 5876 5877 5878 5879 5879 5879 5879 5879 5879 5879 5878 5877 5877 5876 5875 5874 5873 5872 5871 5870 5869 5868 5866 5865 5863 5862 5860 5859 5857 5855 5854 5852 5850
5857 5859 5861 5863 5865 5867 5868 5870 5872 5873 5874 5875 5876 5877 5877 5877 5877 5877 5877 5876 5876 5875 5875 5874 5873 5872 5871 5870 5869 5868 5866 5865 5864 5862 5861 5859 5857 5856 5854 5852 5850 5849 5847
5853 5855 5858 5860 5862 5864 5866 5867 5869 5870 5872 5873 5873 5874 5875 5875 5875 5875 5875 5874 5874 5873 5872 5871 5870 5870 5869 5868 5867 5865 5864 5862 5861 5859 5858 5856 5854 5852 5850 5849 5847 5845 5843
5849 5851 5854 5856 5859 5861 5863 5865 5866 5867 5869 5870 5871 5871 5872 5872 5872 5872 5872 5872 5871 5870 5870 5869 5868 5867 5866 5865 5864 5862 5861 5859 5858 5856 5854 5852 5851 5849 5847 5845 5843 5841 5839
5845 5848 5850 5853 5855 5857 5859 5861 5863 5865 5866 5867 5868 5869 5869 5870 5870 5870 5869 5869 5868 5868 5867 5866 5865 5864 5863 5862 5861 5859 5858 5856 5854 5852 5850 5849 5846 5844 5842 5840 5838 5836 5834
5841 5843 5846 5849 5851 5854 5856 5858 5860 5861 5863 5864 5865 5866 5866 5867 5867 5867 5867 5866 5866 5865 5864 5863 5862 5861 5860 5859 5858 5856 5855 5853 5851 5849 5847 5844 5842 5840 5838 5836 5833 5831 5829
5837 5839 5842 5845 5847 5850 5852 5854 5856 5858 5859 5861 5862 5863 5863 5864 5864 5864 5864 5863 5863 5862 5861 5860 5859 5858 5857 5856 5854 5853 5851 5849 5847 5844 5842 5840 5838 5835 5833 5830 5828 5826 5823
5833 5835 5838 5841 5843 5846 5848 5850 5853 5854 5856 5857 5858 5859 5860 5860 5860 5860 5860 5860 5859 5859 5858 5857 5856 5855 5853 5852 5850 5849 5847 5845 5842 5840 5838 5835 5833 5830 5828 5825 5823 5820 5817
5829 5831 5834 5837 5839 5842 5844 5846 5848 5850 5852 5853 5854 5855 5856 5857 5857 5857 5857 5856 5856 5855 5854 5853 5852 5851 5849 5848 5846 5844 5842 5840 5837 5835 5833 5830 5828 5825 5822 5820 5817 5814 5811
5824 5827 5830 5832 5835 5838 5840 5842 5844 5846 5848 5849 5851 5852 5852 5853 5853 5853 5853 5853 5852 5852 5851 5850 5848 5847 5845 5843 5842 5840 5837 5835 5832 5830 5827 5825 5822 5819 5816 5814 5811 5808 5805
5820 5822 5825 5828 5831 5833 5836 5838 5840 5842 5844 5845 5847 5848 5848 5849 5849 5849 5849 5848 5848 5847 5846 5845 5844 5842 5840 5839 5837 5835 5832 5830 5827 5825 5822 5819 5816 5813 5810 5807 5804 5801 5798
5815 5818 5821 5824 5826 5829 5831 5834 5836 5838 5840 5841 5842 5843 5844 5845 5845 5845 5844 5844 5844 5843 5842 5841 5839 5837 5835 5834 5831 5829 5827 5824 5822 5819 5816 5813 5810 5807 5804 5801 5797 5794 5791
5810 5813 5816 5819 5822 5824 5827 5829 5832 5834 5835 5837 5838 5839 5840 5840 5840 5840 5840 5840 5839 5838 5837 5835 5834 5832 5830 5828 5826 5824 5821 5818 5816 5813 5810 5807 5803 5800 5797 5794 5790 5787 5783
5805 5808 5811 5814 5817 5820 5822 5825 5827 5829 5831 5832 5833 5834 5835 5835 5835 5835 5835 5835 5834 5833 5832 5830 5829 5827 5825 5822 5820 5817 5815 5812 5809 5806 5803 5800 5796 5793 5790 5786 5783 5779 5776
5799 5802 5805 5809 5811 5814 5817 5819 5821 5824 5825 5827 5828 5829 5830 5830 5831 5831 5830 5830 5829 5827 5826 5825 5823 5821 5819 5816 5814 5811 5808 5805 5802 5799 5796 5793 5789 5786 5782 5779 5775 5772 5768
5792 5796 5799 5803 5806 5808 5811 5813 5816 5818 5820 5822 5823 5824 5824 5825 5825 5825 5825 5824 5823 5822 5820 5819 5817 5814 5812 5810 5807 5804 5801 5798 5795 5792 5789 5785 5782 5778 5775 5771 5768 5764 5760
5786 5790 5793 5797 5800 5802 5805 5807 5810 5812 5814 5816 5817 5818 5819 5819 5819 5819 5819 5818 5817 5815 5814 5812 5810 5808 5806 5803 5800 5797 5794 5791 5788 5785 5782 5778 5774 5771 5767 5764 5760 5756 5752
5779 5783 5786 5790 5793 5796 5798 5801 5804 5806 5808 5809 5811 5812 5812 5813 5813 5813 5812 5812 5810 5809 5807 5805 5803 5801 5799 5796 5793 5790 5787 5784 5781 5778 5774 5771 5767 5764 5760 5756 5752 5748 5745
5771 5776 5780 5783 5786 5789 5792 5795 5798 5799 5801 5803 5804 5805 5806 5806 5806 5806 5805 5805 5803 5802 5800 5798 5796 5794 5792 5789 5786 5783 5780 5777 5774 5771 5767 5764 5760 5756 5752 5749 5745 5741 5737
5764 5768 5772 5776 5779 5783 5786 5788 5790 5792 5794 5796 5797 5798 5799 5799 5799 5799 5798 5797 5796 5795 5793 5791 5789 5787 5784 5782 5779 5776 5773 5770 5766 5763 5760 5756 5752 5749 5745 5741 5737 5733 5729
5756 5761 5765 5768 5772 5775 5778 5780 5782 5785 5787 5789 5790 5791 5791 5791 5791 5791 5791 5790 5789 5787 5785 5784 5782 5779 5777 5774 5771 5769 5766 5763 5759 5756 5752 5748 5745 5741 5737 5733 5729 5725 5721
5748 5752 5756 5760 5764 5767 5769 5772 5775 5778 5780 5781 5782 5782 5783 5783 5783 5783 5783 5782 5781 5779 5778 5776 5774 5772 5769 5767 5764 5761 5758 5755 5752 5748 5745 5741 5737 5733 5730 5726 5721 5717 5713
5737 5742 5747 5751 5755 5758 5761 5765 5767 5770 5772 5772 5773 5774 5775 5775 5775 5775 5775 5774 5773 5772 5770 5768 5766 5764 5762 5759 5756 5753 5750 5747 5744 5740 5737 5733 5729 5725 5721 5717 5713 5709 5705
5727 5732 5737 5742 5746 5750 5753 5756 5759 5761 5763 5764 5765 5766 5766 5767 5767 5767 5766 5766 5765 5764 5762 5760 5758 5756 5754 5751 5749 5746 5743 5740 5736 5732 5729 5725 5722 5718 5713 5709 5705 5701 5696